Home > Weather > Pierre > Past weeks

Flag for USA Weather for the Past 2 Weeks in Pierre, South Dakota, USA

Now
49 °F

Clear.


Feels Like: 48 °F
Forecast: 47 / 82 °F
Wind: 3 mph from Southwest

Location: Pierre Regional Airport

Current Time: May 5, 2016 at 4:09:39 AM

Latest Report: May 5, 2016 at 2:53 AM


Visibility: 10 mi

Pressure: 29.98 "Hg

Humidity: 69%

Dew Point: 39 °F

Location of PierreLocation

Historic Weather in Pierre — Graph

°F

Pierre Temperature Yesterday

Maximum temperature yesterday: 73 °F (at 4:53 PM)
Minimum temperature yesterday: 37 °F (at 6:53 AM)
Average temperature yesterday: 58 °F

High & Low Weather Summary for the Past Weeks

 TemperatureHumidityPressure
High82 °F (Apr 23, 4:53 PM)97% (Apr 25, 3:53 AM)30.30 "Hg (Apr 25, 3:53 AM)
Low31 °F (May 1, 6:53 AM)25% (May 4, 3:53 PM)29.36 "Hg (Apr 24, 3:53 AM)
Average50 °F70%29.93 "Hg
* Reported Apr 20 2:53 AM — May 5 2:53 AM, Pierre, Weather by CustomWeather, © 2016

Note: Actual official high and low records may vary slightly from our data, if they occured in-between our weather recording intervals... More about our weather records

Advertising

Pierre Weather History for the Previous 24 Hours

Scroll right to see more
 ConditionsComfort  
Time TempWeatherWind HumidityBarometerVisibility
2:53 AM
Thu, May 5
49 °FClear.3 mph69%29.98 "Hg10 mi
1:53 AM48 °FClear.3 mph74%29.99 "Hg10 mi
12:53 AM53 °FClear.5 mph61%29.99 "Hg10 mi
11:53 PM
Wed, May 4
57 °FClear.7 mph53%30.00 "Hg10 mi
10:53 PM56 °FClear.5 mph58%30.01 "Hg10 mi
9:53 PM61 °FClear.6 mph50%30.00 "Hg10 mi
8:53 PM68 °FSunny.6 mph35%29.98 "Hg10 mi
7:53 PM71 °FSunny.No wind44%29.98 "Hg10 mi
6:53 PM73 °FSunny.3 mph28%30.01 "Hg2 mi
5:53 PM73 °FSunny.3 mph26%30.02 "Hg10 mi
4:53 PM73 °FSunny.3 mph26%30.03 "Hg10 mi
3:53 PM72 °FSunny.No wind25%30.05 "Hg9 mi
2:53 PM71 °FSunny.No wind27%30.06 "Hg10 mi
1:53 PM69 °FSunny.5 mph30%30.08 "Hg10 mi
12:53 PM66 °FSunny.5 mph28%30.11 "Hg10 mi
11:53 AM63 °FSunny.3 mph35%30.12 "Hg10 mi
10:53 AM59 °FSunny.No wind41%30.12 "Hg10 mi
9:53 AM56 °FSunny.No wind47%30.13 "Hg10 mi
8:53 AM54 °FSunny.No wind45%30.13 "Hg10 mi
7:53 AM48 °FSunny.No wind66%30.12 "Hg10 mi
6:53 AM37 °FClear.7 mph79%30.11 "Hg10 mi
5:53 AM38 °FClear.6 mph76%30.10 "Hg10 mi
4:53 AM44 °FClear.5 mph58%30.09 "Hg10 mi
Weather by CustomWeather, © 2016

See weather overviewHow to use our weather pages